Location: Balaclava NSW 2575, Australia
(34.4510°S, 150.4953°E)
Time: 11:40:29
(UTC+10:00)

XW-2D - Visible Passes

Search period start: 26 July 2021 00:00
Search period end: 05 August 2021 00:00
Orbit: 504 x 525 km, 97.5° (Epoch: 25 July)

Date Brightness Start Highest point End Pass type
(mag) Time Alt. Az. Time Alt. Az. Time Alt. Az.
26 Jul ? 04:21:41 10° ENE 04:24:23 19° ESE 04:25:25 17° SE visible
26 Jul ? 05:55:03 10° NNW 05:58:12 24° W 06:00:23 15° SW visible
26 Jul ? 19:05:18 10° SW 19:06:33 11° WSW 19:07:47 10° W visible
27 Jul ? 04:07:43 10° E 04:09:19 12° ESE 04:10:10 12° SE visible
27 Jul ? 05:39:21 10° NNW 05:42:55 38° W 05:45:09 20° SW visible
27 Jul ? 18:48:55 10° SSW 18:51:28 17° WSW 18:54:00 10° WNW visible
28 Jul ? 05:23:53 10° N 05:27:40 63° W 05:29:54 24° SSW visible
28 Jul ? 18:33:08 10° SSW 18:36:22 26° WSW 18:39:31 10° NW visible
29 Jul ? 05:08:38 10° NNE 05:12:27 79° ESE 05:14:40 25° S visible
29 Jul ? 18:17:36 10° S 18:21:13 41° WSW 18:24:45 10° NW visible
30 Jul ? 04:53:34 10° NNE 04:57:16 48° ESE 04:59:26 22° S visible
30 Jul ? 18:02:14 10° S 18:06:02 69° WSW 18:09:45 10° NNW visible
31 Jul ? 04:38:43 10° NE 04:42:06 30° ESE 04:44:13 18° SSE visible
31 Jul ? 06:14:00 10° NW 06:16:09 14° W 06:18:21 10° WSW visible
31 Jul ? 17:47:00 10° SSE 17:50:49 72° ENE 17:54:32 10° N visible
01 Aug ? 04:24:09 10° ENE 04:26:59 20° ESE 04:29:00 14° SSE visible
01 Aug ? 05:57:47 10° NNW 06:00:50 22° W 06:03:55 10° SW visible
01 Aug ? 19:08:26 10° WSW 19:09:07 10° WSW 19:09:47 10° WSW visible
02 Aug ? 04:10:02 10° E 04:11:52 13° ESE 04:13:44 10° SE visible
02 Aug ? 05:42:00 10° NNW 05:45:32 35° W 05:48:47 12° SSW visible
02 Aug ? 18:51:39 10° SSW 18:54:01 16° WSW 18:56:22 10° WNW visible
03 Aug ? 05:26:29 10° N 05:30:15 57° W 05:33:36 13° SSW visible
03 Aug ? 18:35:47 10° SSW 18:38:53 24° WSW 18:41:57 10° NW visible
04 Aug ? 05:11:10 10° NNE 05:15:01 86° ESE 05:18:25 13° S visible
04 Aug ? 18:20:12 10° S 18:23:44 38° WSW 18:27:12 10° NW visible
